N2708E KSEA-EGHI

Flight info

Callsign N2708E
Flight time N/A
Altitude 33000
Route SEA1 SEA J505 ONSET DCT WELLF DCT YMM DCT 62N100W/N0467F350 65N091W 67N080W/N0463F370 68N070W/M080F370 68N060W 67N050W 66N040W 64N030W/M080F390 61N020W DCT GOMUP/N0464F390 DCT GINGA DCT SOSIM L15 HON/N0415F230 L8 BUGUP
Aircraft B737/M-SDE2E3FGHIRWXY/LB1

Departure

Time N/A
Airport Seattle–Tacoma International Airport (KSEA)

Arrival

Time 2026-05-07 12:35
Airport Southampton Airport (EGHI)
Time Latitude Longitude Altitude Speed Heading
2026-05-07 03:47 51.00981 -116.51957 32902 ft 461 kts 21°
2026-05-07 03:47 51.03816 -116.49595 32900 ft 461 kts 21°
2026-05-07 03:48 51.09511 -116.44868 32911 ft 461 kts 21°
2026-05-07 03:48 51.15177 -116.40180 32910 ft 462 kts 21°
2026-05-07 03:49 51.20877 -116.35462 32906 ft 462 kts 21°
2026-05-07 03:49 51.26588 -116.30725 32908 ft 462 kts 22°
2026-05-07 03:50 51.32290 -116.25981 32915 ft 461 kts 22°
2026-05-07 03:50 51.37977 -116.21234 32944 ft 461 kts 22°
2026-05-07 03:51 51.43674 -116.16465 32941 ft 460 kts 22°
2026-05-07 03:51 51.49303 -116.11740 32938 ft 458 kts 22°
2026-05-07 03:52 51.54951 -116.06987 32957 ft 458 kts 23°
2026-05-07 03:52 51.60598 -116.02222 32946 ft 458 kts 23°
2026-05-07 03:53 51.66233 -115.97453 32981 ft 459 kts 24°
2026-05-07 03:53 51.69073 -115.95046 33137 ft 461 kts 24°
2026-05-07 03:53 51.71905 -115.92640 33451 ft 458 kts 24°
2026-05-07 03:53 51.74720 -115.90243 33754 ft 457 kts 24°
2026-05-07 03:54 51.77533 -115.87845 33942 ft 457 kts 24°
2026-05-07 03:54 51.80320 -115.85468 34112 ft 458 kts 24°
2026-05-07 03:54 51.83130 -115.83069 34264 ft 458 kts 24°
2026-05-07 03:54 51.85950 -115.80656 34475 ft 457 kts 24°
2026-05-07 03:55 51.88757 -115.78250 34688 ft 456 kts 24°
2026-05-07 03:55 51.91563 -115.75843 34837 ft 456 kts 24°
2026-05-07 03:55 51.94370 -115.73432 34938 ft 457 kts 24°
2026-05-07 03:56 51.99977 -115.68607 34898 ft 458 kts 25°
2026-05-07 03:56 52.05602 -115.63749 34896 ft 456 kts 25°
2026-05-07 03:57 52.11193 -115.58906 34898 ft 454 kts 25°
2026-05-07 03:57 52.16767 -115.54065 34884 ft 453 kts 25°
2026-05-07 03:58 52.22326 -115.49224 34887 ft 453 kts 25°
2026-05-07 03:58 52.27888 -115.44368 34864 ft 454 kts 25°
2026-05-07 03:59 52.33440 -115.39506 34866 ft 457 kts 25°
2026-05-07 03:59 52.39056 -115.34573 34865 ft 459 kts 25°
2026-05-07 04:00 52.44702 -115.29599 34866 ft 461 kts 25°
2026-05-07 04:00 52.50367 -115.24594 34852 ft 463 kts 25°
2026-05-07 04:01 52.55090 -115.20408 34859 ft 464 kts 25°
2026-05-07 04:01 52.60773 -115.15359 34835 ft 464 kts 25°
2026-05-07 04:02 52.67376 -115.09473 34837 ft 463 kts 25°
2026-05-07 04:02 52.72120 -115.05232 34830 ft 462 kts 25°
2026-05-07 04:03 52.77741 -115.00193 34827 ft 462 kts 25°
2026-05-07 04:03 52.83384 -114.95120 34844 ft 461 kts 26°
2026-05-07 04:04 52.89017 -114.90041 34835 ft 461 kts 26°
2026-05-07 04:04 52.94640 -114.84956 34833 ft 460 kts 26°
2026-05-07 04:05 53.00265 -114.79853 34831 ft 460 kts 26°
2026-05-07 04:05 53.05881 -114.74744 34835 ft 460 kts 26°
2026-05-07 04:06 53.11466 -114.69648 34833 ft 460 kts 26°
2026-05-07 04:06 53.17095 -114.64495 34841 ft 460 kts 26°
2026-05-07 04:07 53.22148 -114.59857 34841 ft 461 kts 26°
2026-05-07 04:07 53.27770 -114.54682 34838 ft 461 kts 26°
2026-05-07 04:08 53.33390 -114.49493 34838 ft 461 kts 26°
2026-05-07 04:08 53.39009 -114.44288 34844 ft 461 kts 26°
2026-05-07 04:09 53.44636 -114.39061 34862 ft 461 kts 26°
2026-05-07 04:09 53.50252 -114.33827 34849 ft 461 kts 26°
2026-05-07 04:10 53.55831 -114.28613 34837 ft 461 kts 26°
2026-05-07 04:10 53.61431 -114.23362 34834 ft 460 kts 26°
2026-05-07 04:11 53.67027 -114.18100 34832 ft 460 kts 26°
2026-05-07 04:11 53.72615 -114.12829 34868 ft 459 kts 27°
2026-05-07 04:12 53.78191 -114.07553 34858 ft 459 kts 26°
2026-05-07 04:12 53.83763 -114.02265 34857 ft 459 kts 26°
2026-05-07 04:13 53.89324 -113.96970 34857 ft 458 kts 26°
2026-05-07 04:13 53.94885 -113.91660 34864 ft 458 kts 26°
2026-05-07 04:14 54.00411 -113.86367 34867 ft 458 kts 27°
2026-05-07 04:14 54.05974 -113.81021 34884 ft 459 kts 26°
2026-05-07 04:15 54.11544 -113.75653 34872 ft 459 kts 26°
2026-05-07 04:15 54.17066 -113.70314 34872 ft 459 kts 26°
2026-05-07 04:16 54.22624 -113.64923 34873 ft 459 kts 26°
2026-05-07 04:16 54.28181 -113.59516 34870 ft 460 kts 26°
2026-05-07 04:17 54.33751 -113.54080 34883 ft 460 kts 26°
2026-05-07 04:17 54.39311 -113.48637 34875 ft 460 kts 26°
2026-05-07 04:18 54.44878 -113.43170 34869 ft 460 kts 26°
2026-05-07 04:18 54.50400 -113.37728 34866 ft 460 kts 27°
2026-05-07 04:19 54.55944 -113.32249 34872 ft 459 kts 27°
2026-05-07 04:19 54.61492 -113.26748 34867 ft 460 kts 27°
2026-05-07 04:20 54.67033 -113.21237 34886 ft 459 kts 26°
2026-05-07 04:20 54.72569 -113.15713 34866 ft 459 kts 27°
2026-05-07 04:21 54.80858 -113.07409 34870 ft 458 kts 27°
2026-05-07 04:21 54.86370 -113.01864 34871 ft 457 kts 27°
2026-05-07 04:22 54.91874 -112.96311 34874 ft 457 kts 27°
2026-05-07 04:22 54.97375 -112.90743 34890 ft 457 kts 26°
2026-05-07 04:23 55.02833 -112.85201 34878 ft 457 kts 26°
2026-05-07 04:23 55.08319 -112.79612 34871 ft 456 kts 26°
2026-05-07 04:24 55.13798 -112.74012 34875 ft 455 kts 26°
2026-05-07 04:24 55.19266 -112.68406 34874 ft 455 kts 27°
2026-05-07 04:25 55.24734 -112.62782 34874 ft 455 kts 27°
2026-05-07 04:25 55.30185 -112.57157 34883 ft 454 kts 26°
2026-05-07 04:26 55.35588 -112.51562 34872 ft 452 kts 26°
2026-05-07 04:26 55.40999 -112.45942 34868 ft 451 kts 26°
2026-05-07 04:27 55.46395 -112.40320 34870 ft 450 kts 26°
2026-05-07 04:27 55.51778 -112.34694 34876 ft 449 kts 26°
2026-05-07 04:28 55.57148 -112.29064 34874 ft 448 kts 26°
2026-05-07 04:28 55.62477 -112.23458 34881 ft 448 kts 26°
2026-05-07 04:29 55.67842 -112.17797 34878 ft 449 kts 26°
2026-05-07 04:29 55.73216 -112.12108 34871 ft 450 kts 26°
2026-05-07 04:30 55.78600 -112.06390 34879 ft 451 kts 26°
2026-05-07 04:30 55.83987 -112.00648 34878 ft 452 kts 26°
2026-05-07 04:31 55.89382 -111.94880 34894 ft 453 kts 26°
2026-05-07 04:31 55.94749 -111.89122 34881 ft 452 kts 26°
2026-05-07 04:32 56.00129 -111.83330 34871 ft 451 kts 26°
2026-05-07 04:32 56.05500 -111.77531 34877 ft 450 kts 26°
2026-05-07 04:33 56.10863 -111.71721 34879 ft 450 kts 26°
2026-05-07 04:33 56.16212 -111.65908 34886 ft 449 kts 26°
2026-05-07 04:34 56.21554 -111.60082 34899 ft 449 kts 26°
2026-05-07 04:34 56.26890 -111.54244 34889 ft 449 kts 26°
2026-05-07 04:35 56.32189 -111.48427 34882 ft 448 kts 26°
2026-05-07 04:35 56.37514 -111.42563 34875 ft 448 kts 26°
2026-05-07 04:36 56.42835 -111.36683 34879 ft 448 kts 26°
2026-05-07 04:36 56.48155 -111.30785 34868 ft 448 kts 26°
2026-05-07 04:37 56.53468 -111.24875 34882 ft 448 kts 26°
2026-05-07 04:37 56.58786 -111.18939 34866 ft 449 kts 27°
2026-05-07 04:38 56.63786 -111.13335 34859 ft 449 kts 28°
2026-05-07 04:38 56.68339 -111.06736 34872 ft 455 kts 37°
2026-05-07 04:39 56.73022 -110.98915 34877 ft 456 kts 38°
2026-05-07 04:39 56.77665 -110.91110 34882 ft 457 kts 38°
2026-05-07 04:40 56.82356 -110.83284 34899 ft 457 kts 37°
2026-05-07 04:40 56.87063 -110.75454 34908 ft 457 kts 37°
2026-05-07 04:41 56.91770 -110.67610 34911 ft 457 kts 37°
2026-05-07 04:41 56.96472 -110.59745 34920 ft 457 kts 37°
2026-05-07 04:42 57.01163 -110.51870 34914 ft 457 kts 38°
2026-05-07 04:42 57.05812 -110.44035 34941 ft 456 kts 38°
2026-05-07 04:43 57.10482 -110.36136 34925 ft 455 kts 38°
2026-05-07 04:43 57.15129 -110.28247 34921 ft 454 kts 38°
2026-05-07 04:44 57.19763 -110.20353 34920 ft 452 kts 38°
2026-05-07 04:44 57.24382 -110.12457 34922 ft 451 kts 38°
2026-05-07 04:45 57.28951 -110.04620 34926 ft 451 kts 38°
2026-05-07 04:45 57.33550 -109.96701 34924 ft 450 kts 38°
2026-05-07 04:46 57.38127 -109.88793 34930 ft 449 kts 38°
2026-05-07 04:46 57.42693 -109.80875 34921 ft 449 kts 38°
2026-05-07 04:47 57.47254 -109.72937 34932 ft 448 kts 38°
2026-05-07 04:47 57.51798 -109.65002 34936 ft 449 kts 38°
2026-05-07 04:48 57.56313 -109.57088 34959 ft 449 kts 38°
2026-05-07 04:48 57.60853 -109.49102 34943 ft 448 kts 38°
2026-05-07 04:49 57.65388 -109.41093 34952 ft 448 kts 38°
2026-05-07 04:49 57.69909 -109.33083 34941 ft 447 kts 38°
2026-05-07 04:50 57.73660 -109.26413 34954 ft 447 kts 38°
2026-05-07 04:50 57.78167 -109.18374 34971 ft 446 kts 38°
2026-05-07 04:51 57.82632 -109.10383 34972 ft 446 kts 38°
2026-05-07 04:51 57.87123 -109.02313 34979 ft 445 kts 38°
2026-05-07 04:52 57.91587 -108.94263 34971 ft 444 kts 38°
2026-05-07 04:52 57.96048 -108.86191 34993 ft 444 kts 39°
2026-05-07 04:53 58.00465 -108.78169 34994 ft 444 kts 39°
2026-05-07 04:53 58.04910 -108.70066 35007 ft 444 kts 39°
2026-05-07 04:54 58.09335 -108.61972 35006 ft 444 kts 38°
2026-05-07 04:54 58.13766 -108.53834 34998 ft 444 kts 38°
2026-05-07 04:55 58.18198 -108.45665 35000 ft 443 kts 38°
2026-05-07 04:55 58.22609 -108.37506 35000 ft 442 kts 39°
2026-05-07 04:56 58.27011 -108.29334 35003 ft 442 kts 39°
2026-05-07 04:56 58.31404 -108.21149 34998 ft 442 kts 39°
2026-05-07 04:57 58.35765 -108.12995 35014 ft 442 kts 39°
2026-05-07 04:57 58.40152 -108.04760 35011 ft 443 kts 39°
2026-05-07 04:58 58.44545 -107.96484 35010 ft 444 kts 39°
2026-05-07 04:58 58.48939 -107.88175 35022 ft 444 kts 39°
2026-05-07 04:59 58.53306 -107.79886 35018 ft 445 kts 39°
2026-05-07 04:59 58.57700 -107.71514 35036 ft 445 kts 39°
2026-05-07 05:00 58.62069 -107.63155 35023 ft 443 kts 39°
2026-05-07 05:00 58.66414 -107.54812 35032 ft 440 kts 39°
2026-05-07 05:01 58.70742 -107.46474 35033 ft 439 kts 39°
2026-05-07 05:01 58.75025 -107.38194 35051 ft 438 kts 39°
2026-05-07 05:02 58.79340 -107.29821 35041 ft 438 kts 39°
2026-05-07 05:02 58.83611 -107.21500 35047 ft 439 kts 39°
2026-05-07 05:03 58.87906 -107.13100 35048 ft 439 kts 39°
2026-05-07 05:03 58.92193 -107.04684 35047 ft 438 kts 39°
2026-05-07 05:04 58.96463 -106.96270 35052 ft 437 kts 39°
2026-05-07 05:04 59.00725 -106.87843 35051 ft 437 kts 39°
2026-05-07 05:05 59.04948 -106.79459 35089 ft 437 kts 40°
2026-05-07 05:05 59.09195 -106.70998 35057 ft 437 kts 40°
2026-05-07 05:06 59.13433 -106.62520 35042 ft 436 kts 40°
2026-05-07 05:06 59.17660 -106.54033 35048 ft 435 kts 40°
2026-05-07 05:07 59.21876 -106.45536 35050 ft 435 kts 40°
2026-05-07 05:07 59.26079 -106.37035 35050 ft 435 kts 40°
2026-05-07 05:08 59.30247 -106.28571 35081 ft 435 kts 40°
2026-05-07 05:08 59.34443 -106.20018 35057 ft 435 kts 40°
2026-05-07 05:09 59.38633 -106.11444 35053 ft 435 kts 40°
2026-05-07 05:09 59.42817 -106.02851 35044 ft 434 kts 40°
2026-05-07 05:10 59.46955 -105.94320 35052 ft 434 kts 40°
2026-05-07 05:10 59.51120 -105.85702 35025 ft 434 kts 41°
2026-05-07 05:11 59.55279 -105.77061 35080 ft 434 kts 41°
2026-05-07 05:11 59.59409 -105.68448 35051 ft 434 kts 41°
2026-05-07 05:12 59.63547 -105.59783 35042 ft 433 kts 41°
2026-05-07 05:12 59.67672 -105.51112 35045 ft 432 kts 41°
2026-05-07 05:13 59.71781 -105.42444 35046 ft 431 kts 41°
2026-05-07 05:13 59.75883 -105.33757 35046 ft 431 kts 41°
2026-05-07 05:14 59.79948 -105.25115 35097 ft 430 kts 41°
2026-05-07 05:14 59.84040 -105.16384 35059 ft 431 kts 41°
2026-05-07 05:15 59.88125 -105.07631 35044 ft 430 kts 41°
2026-05-07 05:15 59.92178 -104.98912 35048 ft 430 kts 41°
2026-05-07 05:16 59.96241 -104.90140 35048 ft 430 kts 41°
2026-05-07 05:16 60.00270 -104.81406 35050 ft 430 kts 41°
2026-05-07 05:17 60.04320 -104.72596 35091 ft 430 kts 42°
2026-05-07 05:17 60.08381 -104.63728 35062 ft 432 kts 42°
2026-05-07 05:18 60.12444 -104.54818 35050 ft 433 kts 43°
2026-05-07 05:18 60.16512 -104.45860 35052 ft 434 kts 43°
2026-05-07 05:19 60.20559 -104.36913 35057 ft 435 kts 43°
2026-05-07 05:19 60.24631 -104.27878 35052 ft 436 kts 43°
2026-05-07 05:20 60.28701 -104.18808 35083 ft 436 kts 43°
2026-05-07 05:20 60.32779 -104.09687 35066 ft 438 kts 44°
2026-05-07 05:21 60.38888 -103.95950 35049 ft 439 kts 44°
2026-05-07 05:22 60.42974 -103.86715 35046 ft 440 kts 44°
2026-05-07 05:22 60.47055 -103.77455 35052 ft 440 kts 44°
2026-05-07 05:23 60.51111 -103.68212 35049 ft 441 kts 44°
2026-05-07 05:23 60.55187 -103.58888 35059 ft 441 kts 45°
2026-05-07 05:24 60.59260 -103.49532 35054 ft 442 kts 45°
2026-05-07 05:24 60.63329 -103.40146 35053 ft 442 kts 45°
2026-05-07 05:25 60.67395 -103.30727 35051 ft 442 kts 45°
2026-05-07 05:25 60.71456 -103.21282 35054 ft 442 kts 46°
2026-05-07 05:26 60.75489 -103.11861 35056 ft 442 kts 46°
2026-05-07 05:26 60.79541 -103.02358 35054 ft 443 kts 46°
2026-05-07 05:27 60.83586 -102.92832 35062 ft 443 kts 46°
2026-05-07 05:27 60.87629 -102.83269 35059 ft 443 kts 46°
2026-05-07 05:28 60.91629 -102.73767 35068 ft 443 kts 46°
2026-05-07 05:28 60.95652 -102.64172 35068 ft 442 kts 46°
2026-05-07 05:29 60.99664 -102.54563 35072 ft 442 kts 46°
2026-05-07 05:29 61.03674 -102.44919 35088 ft 443 kts 47°
2026-05-07 05:30 61.07681 -102.35239 35086 ft 444 kts 47°
2026-05-07 05:30 61.11664 -102.25576 35093 ft 444 kts 47°
2026-05-07 05:31 61.15665 -102.15828 35093 ft 445 kts 47°
2026-05-07 05:31 61.19664 -102.06043 35093 ft 445 kts 47°
2026-05-07 05:32 61.23660 -101.96225 35095 ft 445 kts 47°
2026-05-07 05:32 61.27649 -101.86381 35101 ft 446 kts 48°
2026-05-07 05:33 61.31640 -101.76486 35107 ft 446 kts 48°
2026-05-07 05:33 61.35626 -101.66564 35100 ft 446 kts 48°
2026-05-07 05:34 61.39596 -101.56637 35103 ft 446 kts 48°
2026-05-07 05:34 61.43548 -101.46712 35101 ft 446 kts 48°
2026-05-07 05:35 61.47509 -101.36722 35099 ft 445 kts 49°
2026-05-07 05:35 61.51433 -101.26780 35116 ft 445 kts 49°
2026-05-07 05:36 61.55370 -101.16761 35105 ft 445 kts 49°
2026-05-07 05:36 61.59301 -101.06716 35103 ft 444 kts 49°
2026-05-07 05:37 61.63219 -100.96657 35101 ft 444 kts 49°
2026-05-07 05:37 61.67128 -100.86579 35100 ft 443 kts 49°
2026-05-07 05:38 61.71018 -100.76504 35093 ft 443 kts 49°
2026-05-07 05:38 61.74876 -100.66466 35106 ft 443 kts 49°
2026-05-07 05:39 61.78749 -100.56346 35089 ft 443 kts 49°
2026-05-07 05:39 61.82610 -100.46213 35086 ft 442 kts 49°
2026-05-07 05:40 61.86462 -100.36058 35081 ft 441 kts 50°
2026-05-07 05:40 61.89655 -100.27605 35075 ft 441 kts 50°
2026-05-07 05:41 61.93481 -100.17436 35078 ft 441 kts 50°
2026-05-07 05:41 61.97302 -100.07238 35089 ft 441 kts 50°
2026-05-07 05:42 62.01104 -99.97096 35071 ft 440 kts 49°
2026-05-07 05:42 62.05076 -99.87160 35067 ft 440 kts 47°
2026-05-07 05:43 62.09091 -99.77298 35051 ft 440 kts 47°
2026-05-07 05:43 62.13084 -99.67386 35051 ft 440 kts 47°
2026-05-07 05:44 62.17027 -99.57495 35032 ft 439 kts 48°
2026-05-07 05:44 62.20979 -99.47514 35028 ft 439 kts 48°
2026-05-07 05:45 62.24922 -99.37505 35046 ft 439 kts 48°
2026-05-07 05:45 62.28864 -99.27455 35019 ft 439 kts 48°
2026-05-07 05:46 62.32789 -99.17405 35023 ft 438 kts 48°
2026-05-07 05:46 62.36698 -99.07351 35012 ft 438 kts 48°
2026-05-07 05:47 62.40575 -98.97337 35002 ft 438 kts 48°
2026-05-07 05:47 62.44477 -98.87211 35007 ft 437 kts 48°
2026-05-07 05:48 62.48369 -98.77068 35000 ft 438 kts 48°
2026-05-07 05:48 62.52228 -98.66964 34995 ft 438 kts 48°
2026-05-07 05:49 62.56109 -98.56756 34993 ft 438 kts 48°
2026-05-07 05:49 62.59976 -98.46542 34968 ft 438 kts 48°
2026-05-07 05:50 62.63835 -98.36299 34974 ft 437 kts 49°
2026-05-07 05:50 62.67682 -98.26044 34966 ft 437 kts 49°
2026-05-07 05:51 62.71525 -98.15751 34994 ft 438 kts 49°
2026-05-07 05:51 62.75346 -98.05471 34976 ft 439 kts 49°
2026-05-07 05:52 62.79189 -97.95084 34956 ft 439 kts 49°
2026-05-07 05:52 62.83026 -97.84666 34953 ft 440 kts 49°
2026-05-07 05:53 62.86861 -97.74205 34940 ft 440 kts 49°
2026-05-07 05:53 62.90669 -97.63769 34939 ft 441 kts 49°
2026-05-07 05:54 62.94495 -97.53237 34934 ft 440 kts 49°
2026-05-07 05:54 62.98313 -97.42676 34940 ft 441 kts 49°
2026-05-07 05:55 63.02128 -97.32072 34933 ft 441 kts 50°
2026-05-07 05:55 63.05933 -97.21451 34931 ft 441 kts 50°
2026-05-07 05:56 63.09730 -97.10796 34935 ft 441 kts 50°
2026-05-07 05:56 63.13502 -97.00166 34933 ft 441 kts 50°
2026-05-07 05:57 63.17286 -96.89450 34920 ft 441 kts 50°
2026-05-07 05:57 63.21061 -96.78708 34921 ft 441 kts 50°
2026-05-07 05:58 63.24803 -96.68010 34914 ft 441 kts 50°
2026-05-07 05:58 63.28563 -96.57209 34896 ft 441 kts 50°
2026-05-07 05:59 63.32309 -96.46397 34911 ft 440 kts 50°
2026-05-07 05:59 63.36043 -96.35567 34906 ft 440 kts 50°
2026-05-07 06:00 63.39763 -96.24725 34908 ft 440 kts 50°
2026-05-07 06:00 63.43453 -96.13919 34908 ft 440 kts 51°
2026-05-07 06:01 63.47163 -96.03005 34903 ft 441 kts 51°
2026-05-07 06:01 63.50869 -95.92049 34903 ft 441 kts 51°
2026-05-07 06:02 63.54572 -95.81048 34889 ft 442 kts 51°
2026-05-07 06:02 63.58271 -95.70003 34888 ft 443 kts 51°
2026-05-07 06:03 63.61952 -95.58960 34889 ft 443 kts 51°
2026-05-07 06:03 63.65643 -95.47833 34877 ft 443 kts 51°
2026-05-07 06:04 63.69319 -95.36695 34888 ft 443 kts 52°
2026-05-07 06:04 63.72992 -95.25511 34867 ft 444 kts 52°
2026-05-07 06:05 63.76661 -95.14282 34864 ft 444 kts 52°
2026-05-07 06:05 63.80329 -95.03001 34870 ft 445 kts 52°
2026-05-07 06:06 63.83991 -94.91684 34851 ft 445 kts 52°
2026-05-07 06:06 63.87629 -94.80384 34853 ft 445 kts 52°
2026-05-07 06:07 63.91270 -94.69016 34856 ft 445 kts 52°
2026-05-07 06:07 63.94912 -94.57590 34839 ft 446 kts 53°
2026-05-07 06:08 63.98555 -94.46099 34819 ft 448 kts 53°
2026-05-07 06:08 64.02199 -94.34550 34832 ft 448 kts 53°
2026-05-07 06:09 64.05810 -94.23044 34832 ft 449 kts 53°
2026-05-07 06:09 64.09439 -94.11420 34834 ft 449 kts 53°
2026-05-07 06:10 64.13061 -93.99761 34820 ft 449 kts 54°
2026-05-07 06:10 64.16677 -93.88061 34829 ft 450 kts 54°
2026-05-07 06:11 64.20281 -93.76337 34800 ft 449 kts 54°
2026-05-07 06:11 64.23879 -93.64571 34809 ft 449 kts 54°
2026-05-07 06:12 64.27440 -93.52868 34809 ft 449 kts 54°
2026-05-07 06:12 64.31011 -93.41069 34790 ft 449 kts 54°
2026-05-07 06:13 64.34572 -93.29240 34804 ft 448 kts 54°
2026-05-07 06:13 64.38110 -93.17428 34788 ft 447 kts 55°
2026-05-07 06:14 64.41637 -93.05586 34790 ft 446 kts 55°
2026-05-07 06:14 64.45148 -92.93739 34792 ft 446 kts 55°
2026-05-07 06:15 64.48625 -92.81944 34787 ft 446 kts 55°
2026-05-07 06:15 64.52113 -92.70049 34798 ft 445 kts 55°
2026-05-07 06:16 64.55594 -92.58116 34787 ft 446 kts 55°
2026-05-07 06:16 64.59063 -92.46157 34784 ft 446 kts 56°
2026-05-07 06:17 64.62529 -92.34148 34796 ft 446 kts 56°
2026-05-07 06:17 64.65991 -92.22085 34778 ft 448 kts 56°
2026-05-07 06:18 64.69450 -92.09971 34775 ft 449 kts 56°
2026-05-07 06:18 64.72885 -91.97873 34781 ft 450 kts 56°
2026-05-07 06:19 64.76341 -91.85635 34768 ft 450 kts 56°
2026-05-07 06:19 64.79789 -91.73356 34768 ft 451 kts 56°
2026-05-07 06:20 64.83231 -91.61034 34784 ft 451 kts 57°
2026-05-07 06:20 64.86641 -91.48761 34767 ft 450 kts 57°
2026-05-07 06:21 64.90045 -91.36437 34758 ft 449 kts 57°
2026-05-07 06:21 64.93435 -91.24096 34747 ft 447 kts 57°
2026-05-07 06:22 64.96809 -91.11752 34748 ft 447 kts 58°
2026-05-07 06:22 65.01701 -90.93194 34745 ft 444 kts 61°
2026-05-07 06:23 65.04665 -90.80425 34769 ft 442 kts 62°
2026-05-07 06:23 65.07575 -90.67631 34757 ft 439 kts 62°
2026-05-07 06:24 65.10481 -90.54902 34740 ft 437 kts 61°
2026-05-07 06:24 65.13379 -90.42228 34752 ft 436 kts 61°
2026-05-07 06:25 65.16264 -90.29569 34756 ft 434 kts 62°
2026-05-07 06:25 65.19130 -90.16920 34755 ft 434 kts 62°
2026-05-07 06:26 65.21966 -90.04328 34758 ft 434 kts 62°
2026-05-07 06:26 65.24816 -89.91602 34757 ft 435 kts 62°
2026-05-07 06:27 65.27659 -89.78824 34771 ft 436 kts 62°
2026-05-07 06:27 65.30502 -89.65975 34739 ft 438 kts 62°
2026-05-07 06:28 65.33345 -89.53044 34753 ft 440 kts 62°
2026-05-07 06:28 65.35708 -89.42239 34765 ft 441 kts 62°
2026-05-07 06:29 65.38554 -89.29150 34774 ft 443 kts 62°
2026-05-07 06:29 65.41395 -89.16002 34774 ft 444 kts 63°
2026-05-07 06:30 65.44228 -89.02814 34768 ft 444 kts 63°
2026-05-07 06:30 65.46995 -88.89851 34755 ft 444 kts 63°
2026-05-07 06:31 65.49792 -88.76666 34763 ft 443 kts 63°
2026-05-07 06:31 65.52583 -88.63426 34756 ft 443 kts 63°
2026-05-07 06:32 65.55362 -88.50161 34749 ft 442 kts 63°
2026-05-07 06:32 65.58128 -88.36874 34754 ft 442 kts 63°
2026-05-07 06:33 65.60880 -88.23571 34741 ft 442 kts 64°
2026-05-07 06:33 65.63611 -88.10290 34753 ft 439 kts 65°
2026-05-07 06:34 65.66322 -87.97013 34748 ft 438 kts 65°
2026-05-07 06:34 65.69010 -87.83770 34752 ft 437 kts 65°
2026-05-07 06:35 65.71667 -87.70594 34747 ft 437 kts 65°
2026-05-07 06:35 65.74329 -87.57312 34765 ft 436 kts 65°
2026-05-07 06:36 65.76981 -87.43995 34762 ft 437 kts 65°
2026-05-07 06:36 65.79621 -87.30650 34762 ft 438 kts 65°
2026-05-07 06:37 65.82260 -87.17224 34749 ft 439 kts 65°
2026-05-07 06:37 65.84882 -87.03796 34768 ft 441 kts 66°
2026-05-07 06:38 65.87514 -86.90232 34763 ft 442 kts 66°
2026-05-07 06:38 65.90140 -86.76605 34732 ft 442 kts 66°
2026-05-07 06:39 65.92736 -86.63051 34752 ft 442 kts 66°
2026-05-07 06:39 65.95331 -86.49404 34761 ft 441 kts 66°
2026-05-07 06:40 65.97910 -86.35750 34762 ft 440 kts 67°
2026-05-07 06:40 66.00471 -86.22104 34755 ft 439 kts 67°
2026-05-07 06:41 66.03012 -86.08470 34753 ft 439 kts 67°
2026-05-07 06:41 66.05542 -85.94804 34757 ft 438 kts 67°
2026-05-07 06:42 66.08040 -85.81219 34755 ft 438 kts 67°
2026-05-07 06:42 66.10543 -85.67518 34770 ft 438 kts 68°
2026-05-07 06:43 66.13027 -85.53827 34752 ft 437 kts 68°
2026-05-07 06:43 66.15497 -85.40117 34743 ft 436 kts 68°
2026-05-07 06:44 66.17932 -85.26505 34721 ft 435 kts 68°
2026-05-07 06:44 66.20365 -85.12816 34741 ft 434 kts 69°
2026-05-07 06:45 66.22781 -84.99125 34757 ft 434 kts 69°
2026-05-07 06:45 66.25186 -84.85406 34758 ft 434 kts 69°
2026-05-07 06:46 66.27582 -84.71635 34753 ft 433 kts 69°
2026-05-07 06:46 66.29957 -84.57899 34764 ft 432 kts 69°
2026-05-07 06:47 66.32305 -84.44219 34766 ft 432 kts 70°
2026-05-07 06:47 66.34651 -84.30454 34769 ft 431 kts 70°
2026-05-07 06:48 66.36986 -84.16657 34764 ft 431 kts 70°
2026-05-07 06:48 66.39306 -84.02850 34776 ft 431 kts 70°
2026-05-07 06:49 66.41613 -83.89019 34777 ft 431 kts 70°
2026-05-07 06:49 66.43900 -83.75216 34768 ft 432 kts 70°
2026-05-07 06:50 66.46180 -83.61354 34764 ft 430 kts 71°
2026-05-07 06:50 66.48432 -83.47564 34767 ft 430 kts 71°
2026-05-07 06:51 66.50682 -83.33683 34785 ft 430 kts 71°
2026-05-07 06:51 66.52923 -83.19757 34783 ft 430 kts 71°
2026-05-07 06:52 66.55148 -83.05828 34783 ft 430 kts 71°
2026-05-07 06:52 66.57365 -82.91848 34781 ft 430 kts 72°
2026-05-07 06:53 66.59566 -82.77864 34776 ft 430 kts 72°
2026-05-07 06:53 66.61742 -82.63939 34793 ft 430 kts 72°
2026-05-07 06:54 66.63915 -82.49931 34793 ft 429 kts 72°
2026-05-07 06:54 66.66077 -82.35883 34787 ft 429 kts 72°
2026-05-07 06:55 66.68225 -82.21818 34792 ft 429 kts 72°
2026-05-07 06:55 66.70359 -82.07748 34772 ft 428 kts 73°
2026-05-07 06:56 66.72473 -81.93703 34804 ft 426 kts 73°
2026-05-07 06:56 66.74550 -81.79795 34790 ft 424 kts 73°
2026-05-07 06:57 66.76617 -81.65843 34789 ft 422 kts 73°
2026-05-07 06:57 66.78669 -81.51886 34799 ft 421 kts 74°
2026-05-07 06:58 66.80699 -81.37975 34811 ft 420 kts 74°
2026-05-07 06:58 66.82714 -81.24055 34811 ft 420 kts 74°
2026-05-07 06:59 66.84708 -81.10178 34806 ft 420 kts 74°
2026-05-07 06:59 66.86702 -80.96193 34810 ft 420 kts 75°
2026-05-07 07:00 66.88680 -80.82218 34804 ft 419 kts 75°
2026-05-07 07:00 66.90637 -80.68275 34825 ft 418 kts 75°
2026-05-07 07:01 66.92582 -80.54306 34819 ft 417 kts 75°
2026-05-07 07:01 66.94498 -80.40446 34814 ft 415 kts 76°
2026-05-07 07:02 66.96400 -80.26570 34817 ft 413 kts 76°
2026-05-07 07:02 66.98290 -80.12687 34832 ft 413 kts 76°
2026-05-07 07:03 67.00161 -79.98822 34832 ft 412 kts 76°
2026-05-07 07:03 67.02034 -79.84963 34831 ft 412 kts 76°
2026-05-07 07:04 67.03894 -79.71161 34830 ft 412 kts 76°
2026-05-07 07:04 67.05754 -79.57252 34831 ft 412 kts 76°
2026-05-07 07:05 67.07601 -79.43309 34841 ft 412 kts 76°
2026-05-07 07:05 67.09434 -79.29358 34842 ft 412 kts 76°
2026-05-07 07:06 67.11246 -79.15447 34842 ft 413 kts 76°
2026-05-07 07:06 67.13054 -79.01462 34842 ft 412 kts 76°
2026-05-07 07:07 67.14846 -78.87484 34841 ft 411 kts 77°
2026-05-07 07:07 67.16622 -78.73511 34854 ft 410 kts 77°
2026-05-07 07:08 67.18387 -78.59501 34858 ft 412 kts 77°
2026-05-07 07:08 67.20145 -78.45435 34862 ft 412 kts 77°
2026-05-07 07:09 67.21894 -78.31322 34861 ft 413 kts 77°
2026-05-07 07:09 67.23631 -78.17180 34855 ft 414 kts 77°
2026-05-07 07:10 67.25351 -78.03063 34881 ft 413 kts 77°
2026-05-07 07:10 67.27063 -77.88891 34869 ft 413 kts 77°
2026-05-07 07:11 67.28758 -77.74734 34871 ft 411 kts 78°
2026-05-07 07:11 67.30439 -77.60566 34867 ft 411 kts 78°
2026-05-07 07:12 67.32104 -77.46405 34872 ft 410 kts 78°
2026-05-07 07:12 67.33754 -77.32253 34875 ft 410 kts 78°
2026-05-07 07:13 67.35390 -77.18087 34875 ft 409 kts 78°
2026-05-07 07:13 67.37005 -77.03985 34872 ft 409 kts 78°
2026-05-07 07:14 67.38614 -76.89806 34868 ft 408 kts 78°
2026-05-07 07:14 67.40203 -76.75677 34886 ft 407 kts 78°
2026-05-07 07:15 67.41767 -76.61640 34884 ft 406 kts 78°
2026-05-07 07:15 67.43329 -76.47488 34886 ft 406 kts 78°
2026-05-07 07:16 67.44878 -76.33326 34885 ft 406 kts 79°
2026-05-07 07:16 67.46403 -76.19255 34885 ft 406 kts 79°
2026-05-07 07:17 67.47926 -76.05066 34882 ft 406 kts 79°
2026-05-07 07:17 67.49184 -75.93250 34884 ft 405 kts 79°
2026-05-07 07:18 67.50681 -75.79064 34881 ft 405 kts 79°
2026-05-07 07:18 67.52166 -75.64848 34881 ft 405 kts 79°
2026-05-07 07:19 67.53627 -75.50738 34879 ft 404 kts 79°
2026-05-07 07:19 67.55083 -75.36529 34869 ft 404 kts 80°
2026-05-07 07:20 67.56528 -75.22284 34879 ft 405 kts 80°
2026-05-07 07:20 67.57967 -75.07967 34886 ft 407 kts 80°
2026-05-07 07:21 67.59396 -74.93600 34883 ft 408 kts 80°
2026-05-07 07:21 67.60816 -74.79177 34879 ft 408 kts 80°
2026-05-07 07:22 67.62217 -74.64809 34893 ft 409 kts 80°
2026-05-07 07:22 67.63614 -74.50339 34889 ft 409 kts 80°
2026-05-07 07:23 67.64996 -74.35858 34890 ft 409 kts 80°
2026-05-07 07:23 67.66369 -74.21333 34888 ft 408 kts 81°
2026-05-07 07:24 67.67715 -74.06928 34881 ft 408 kts 81°
2026-05-07 07:24 67.69058 -73.92414 34908 ft 408 kts 81°
2026-05-07 07:25 67.71047 -73.70619 34891 ft 407 kts 81°
2026-05-07 07:26 67.72353 -73.56109 34884 ft 406 kts 81°
2026-05-07 07:26 67.73636 -73.41691 34890 ft 406 kts 81°
2026-05-07 07:27 67.74915 -73.27166 34896 ft 407 kts 81°
2026-05-07 07:27 67.76184 -73.12585 34897 ft 407 kts 81°
2026-05-07 07:28 67.77440 -72.97988 34897 ft 407 kts 81°
2026-05-07 07:28 67.78685 -72.83364 34902 ft 407 kts 81°
2026-05-07 07:29 67.79908 -72.68814 34892 ft 407 kts 81°
2026-05-07 07:29 67.81123 -72.54204 34906 ft 406 kts 81°
2026-05-07 07:30 67.82323 -72.39599 34912 ft 406 kts 82°
2026-05-07 07:30 67.83510 -72.24980 34912 ft 406 kts 82°
2026-05-07 07:31 67.84674 -72.10457 34915 ft 405 kts 82°
2026-05-07 07:31 67.85832 -71.95845 34915 ft 405 kts 82°
2026-05-07 07:32 67.86980 -71.81183 34904 ft 406 kts 82°
2026-05-07 07:32 67.88117 -71.66461 34923 ft 408 kts 82°
2026-05-07 07:33 67.89240 -71.51742 34941 ft 410 kts 82°
2026-05-07 07:33 67.90361 -71.36866 34939 ft 411 kts 82°
2026-05-07 07:34 67.91471 -71.21955 34935 ft 412 kts 82°
2026-05-07 07:34 67.92571 -71.06964 34965 ft 412 kts 83°
2026-05-07 07:35 67.93648 -70.92098 34958 ft 412 kts 83°
2026-05-07 07:35 67.94719 -70.77119 34972 ft 411 kts 83°
2026-05-07 07:36 67.95774 -70.62140 34972 ft 412 kts 83°
2026-05-07 07:36 67.96818 -70.47117 34971 ft 413 kts 83°
2026-05-07 07:37 67.97850 -70.32073 34996 ft 413 kts 83°
2026-05-07 07:37 67.98870 -70.16999 34996 ft 413 kts 83°
2026-05-07 07:38 67.99875 -70.01918 34974 ft 413 kts 84°
2026-05-07 07:38 68.00467 -69.86786 34998 ft 412 kts 88°
2026-05-07 07:39 68.00879 -69.71485 35002 ft 414 kts 89°
2026-05-07 07:39 68.01282 -69.56134 35018 ft 415 kts 89°
2026-05-07 07:40 68.01687 -69.40866 35012 ft 415 kts 89°
2026-05-07 07:40 68.02088 -69.25491 35011 ft 415 kts 89°
2026-05-07 07:41 68.02478 -69.10123 35017 ft 415 kts 89°
2026-05-07 07:41 68.02854 -68.94755 35012 ft 415 kts 89°
2026-05-07 07:42 68.03215 -68.79385 35005 ft 414 kts 89°
2026-05-07 07:42 68.03561 -68.64013 35040 ft 414 kts 89°
2026-05-07 07:43 68.03893 -68.48656 35047 ft 414 kts 89°
2026-05-07 07:43 68.04209 -68.33375 35048 ft 414 kts 89°
2026-05-07 07:44 68.04513 -68.17975 35046 ft 414 kts 89°
2026-05-07 07:44 68.04802 -68.02596 35047 ft 414 kts 90°
2026-05-07 07:45 68.05075 -67.87304 35065 ft 414 kts 90°
2026-05-07 07:45 68.05336 -67.71901 35100 ft 415 kts 90°
2026-05-07 07:46 68.05582 -67.56474 35136 ft 415 kts 90°
2026-05-07 07:46 68.05814 -67.41055 35151 ft 414 kts 90°
2026-05-07 07:47 68.06032 -67.25651 35151 ft 414 kts 90°
2026-05-07 07:47 68.06235 -67.10268 35149 ft 414 kts 90°
2026-05-07 07:48 68.06423 -66.94888 35177 ft 413 kts 90°
2026-05-07 07:48 68.06596 -66.79632 35180 ft 412 kts 90°
2026-05-07 07:49 68.06756 -66.64278 35185 ft 412 kts 91°
2026-05-07 07:49 68.06901 -66.48967 35172 ft 411 kts 91°
2026-05-07 07:50 68.07032 -66.33708 35161 ft 409 kts 91°
2026-05-07 07:50 68.07147 -66.18544 35166 ft 407 kts 91°
2026-05-07 07:51 68.07248 -66.03513 35171 ft 406 kts 92°
2026-05-07 07:51 68.07335 -65.88415 35169 ft 406 kts 92°
2026-05-07 07:52 68.07409 -65.73330 35160 ft 406 kts 92°
2026-05-07 07:52 68.07469 -65.58240 35115 ft 406 kts 92°
2026-05-07 07:53 68.07514 -65.43048 35146 ft 412 kts 92°
2026-05-07 07:53 68.07546 -65.27523 35156 ft 420 kts 92°
2026-05-07 07:54 68.07565 -65.11913 35156 ft 419 kts 92°
2026-05-07 07:54 68.07570 -64.96419 35158 ft 419 kts 92°
2026-05-07 07:55 68.07560 -64.80836 35152 ft 418 kts 92°
2026-05-07 07:55 68.07535 -64.65280 35152 ft 418 kts 92°
2026-05-07 07:56 68.07495 -64.49712 35149 ft 418 kts 92°
2026-05-07 07:56 68.07440 -64.34178 35144 ft 418 kts 92°
2026-05-07 07:57 68.07371 -64.18640 35149 ft 418 kts 92°
2026-05-07 07:57 68.07287 -64.03105 35145 ft 417 kts 93°
2026-05-07 07:58 68.07189 -63.87570 35145 ft 417 kts 93°
2026-05-07 07:58 68.07077 -63.72145 35144 ft 417 kts 93°
2026-05-07 07:59 68.06950 -63.56626 35136 ft 417 kts 93°
2026-05-07 07:59 68.06808 -63.41110 35146 ft 417 kts 93°
2026-05-07 08:00 68.06651 -63.25569 35138 ft 417 kts 93°
2026-05-07 08:00 68.06479 -63.10017 35136 ft 417 kts 94°
2026-05-07 08:01 68.06295 -62.94587 35135 ft 418 kts 94°
2026-05-07 08:01 68.06094 -62.79011 35129 ft 419 kts 94°
2026-05-07 08:02 68.05878 -62.63442 35129 ft 419 kts 94°
2026-05-07 08:02 68.05648 -62.47851 35135 ft 419 kts 94°
2026-05-07 08:03 68.05403 -62.32280 35129 ft 419 kts 94°
2026-05-07 08:03 68.05143 -62.16723 35128 ft 419 kts 94°
2026-05-07 08:04 68.04871 -62.01270 35131 ft 418 kts 94°
2026-05-07 08:04 68.04582 -61.85719 35133 ft 418 kts 94°
2026-05-07 08:05 68.04279 -61.70174 35129 ft 418 kts 95°
2026-05-07 08:05 68.04016 -61.57267 35137 ft 418 kts 95°
2026-05-07 08:06 68.03632 -61.39233 35130 ft 418 kts 95°
2026-05-07 08:06 68.03342 -61.26229 35136 ft 418 kts 95°
2026-05-07 08:07 68.02987 -61.10858 35098 ft 417 kts 95°
2026-05-07 08:07 68.02614 -60.95382 35127 ft 418 kts 95°
2026-05-07 08:08 68.02227 -60.79871 35136 ft 419 kts 95°
2026-05-07 08:08 68.01823 -60.64314 35138 ft 419 kts 95°
2026-05-07 08:09 68.01407 -60.48846 35136 ft 420 kts 95°
2026-05-07 08:09 68.00975 -60.33310 35136 ft 420 kts 96°
2026-05-07 08:10 68.00530 -60.17767 35132 ft 420 kts 96°
2026-05-07 08:10 68.00068 -60.02215 35133 ft 419 kts 96°
2026-05-07 08:11 67.99191 -59.86879 35141 ft 418 kts 101°
2026-05-07 08:11 67.98139 -59.71722 35139 ft 418 kts 101°
2026-05-07 08:12 67.97072 -59.56491 35139 ft 418 kts 101°
2026-05-07 08:12 67.96006 -59.41265 35139 ft 418 kts 101°
2026-05-07 08:13 67.94936 -59.26063 35142 ft 418 kts 101°
2026-05-07 08:13 67.93853 -59.10860 35141 ft 418 kts 102°
2026-05-07 08:14 67.92765 -58.95791 35142 ft 418 kts 102°
2026-05-07 08:14 67.91656 -58.80645 35141 ft 417 kts 102°
2026-05-07 08:15 67.90531 -58.65483 35141 ft 417 kts 102°
2026-05-07 08:15 67.89393 -58.50352 35136 ft 418 kts 102°
2026-05-07 08:16 67.88238 -58.35196 35147 ft 420 kts 102°
2026-05-07 08:16 67.87065 -58.20007 35142 ft 420 kts 102°
2026-05-07 08:17 67.85876 -58.04807 35145 ft 421 kts 102°
2026-05-07 08:17 67.84673 -57.89610 35139 ft 421 kts 103°
2026-05-07 08:18 67.83463 -57.74529 35137 ft 421 kts 103°
2026-05-07 08:18 67.82229 -57.59339 35143 ft 421 kts 103°
2026-05-07 08:19 67.80992 -57.44298 35145 ft 421 kts 103°
2026-05-07 08:19 67.79734 -57.29180 35141 ft 420 kts 103°
2026-05-07 08:20 67.78461 -57.14082 35137 ft 420 kts 103°
2026-05-07 08:20 67.77177 -56.99022 35140 ft 420 kts 103°
2026-05-07 08:21 67.75880 -56.83995 35145 ft 419 kts 104°
2026-05-07 08:21 67.74569 -56.68972 35142 ft 419 kts 104°
2026-05-07 08:22 67.73254 -56.54083 35140 ft 419 kts 104°
2026-05-07 08:22 67.71915 -56.39094 35132 ft 419 kts 104°
2026-05-07 08:23 67.70564 -56.24138 35136 ft 419 kts 104°
2026-05-07 08:23 67.69200 -56.09211 35142 ft 419 kts 104°
2026-05-07 08:24 67.67830 -55.94382 35140 ft 420 kts 104°
2026-05-07 08:24 67.66438 -55.79478 35140 ft 420 kts 104°
2026-05-07 08:25 67.65030 -55.64569 35134 ft 420 kts 105°
2026-05-07 08:25 67.63607 -55.49665 35137 ft 420 kts 105°
2026-05-07 08:26 67.61460 -55.27472 35137 ft 420 kts 105°
2026-05-07 08:26 67.60005 -55.12636 35134 ft 420 kts 105°
2026-05-07 08:27 67.58538 -54.97831 35133 ft 420 kts 105°
2026-05-07 08:27 67.57057 -54.83030 35138 ft 420 kts 105°
2026-05-07 08:28 67.55563 -54.68263 35136 ft 420 kts 105°
2026-05-07 08:28 67.54063 -54.53585 35136 ft 420 kts 105°
2026-05-07 08:29 67.52542 -54.38840 35145 ft 419 kts 106°
2026-05-07 08:29 67.51006 -54.24110 35137 ft 419 kts 106°
2026-05-07 08:30 67.49459 -54.09420 35147 ft 419 kts 106°
2026-05-07 08:30 67.47910 -53.94857 35146 ft 419 kts 106°
2026-05-07 08:31 67.46336 -53.80195 35147 ft 419 kts 106°
2026-05-07 08:31 67.44749 -53.65563 35153 ft 419 kts 107°
2026-05-07 08:32 67.43160 -53.51041 35146 ft 419 kts 107°
2026-05-07 08:32 67.41547 -53.36451 35152 ft 419 kts 107°
2026-05-07 08:33 67.39921 -53.21875 35132 ft 420 kts 107°
2026-05-07 08:33 67.38278 -53.07296 35149 ft 421 kts 107°
2026-05-07 08:34 67.36614 -52.92654 35154 ft 423 kts 107°
2026-05-07 08:34 67.34931 -52.77991 35152 ft 424 kts 107°
2026-05-07 08:35 67.33230 -52.63305 35156 ft 425 kts 107°
2026-05-07 08:35 67.31522 -52.48700 35154 ft 425 kts 107°
2026-05-07 08:36 67.29791 -52.34030 35154 ft 425 kts 107°
2026-05-07 08:36 67.28048 -52.19385 35157 ft 425 kts 107°
2026-05-07 08:37 67.26291 -52.04763 35158 ft 426 kts 107°
2026-05-07 08:37 67.24532 -51.90262 35157 ft 425 kts 107°
2026-05-07 08:38 67.22751 -51.75697 35157 ft 425 kts 107°
2026-05-07 08:38 67.20954 -51.61135 35158 ft 425 kts 108°
2026-05-07 08:39 67.19149 -51.46640 35163 ft 424 kts 108°
2026-05-07 08:39 67.17332 -51.32170 35156 ft 424 kts 108°
2026-05-07 08:40 67.15499 -51.17701 35146 ft 424 kts 108°
2026-05-07 08:40 67.13655 -51.03273 35146 ft 424 kts 108°
2026-05-07 08:41 67.11810 -50.88956 35134 ft 424 kts 108°
2026-05-07 08:41 67.09941 -50.74572 35122 ft 424 kts 108°
2026-05-07 08:42 67.08057 -50.60192 35164 ft 425 kts 108°
2026-05-07 08:42 67.06156 -50.45812 35156 ft 426 kts 108°
2026-05-07 08:43 67.04236 -50.31392 35169 ft 428 kts 108°
2026-05-07 08:43 67.02308 -50.17026 35170 ft 430 kts 108°
2026-05-07 08:44 67.00349 -50.02528 35165 ft 431 kts 107°
2026-05-07 08:44 66.99100 -49.87566 35167 ft 430 kts 99°
2026-05-07 08:45 66.98140 -49.72564 35171 ft 430 kts 99°
2026-05-07 08:45 66.97152 -49.57478 35167 ft 430 kts 99°
2026-05-07 08:46 66.96132 -49.42419 35174 ft 430 kts 99°
2026-05-07 08:46 66.95090 -49.27379 35203 ft 430 kts 99°
2026-05-07 08:47 66.94034 -49.12391 35205 ft 429 kts 99°
2026-05-07 08:47 66.92963 -48.97397 35202 ft 429 kts 100°
2026-05-07 08:48 66.91878 -48.82431 35219 ft 429 kts 99°
2026-05-07 08:48 66.90787 -48.67568 35222 ft 429 kts 100°
2026-05-07 08:49 66.89673 -48.52608 35236 ft 430 kts 99°
2026-05-07 08:49 66.88542 -48.37610 35259 ft 432 kts 99°
2026-05-07 08:50 66.87399 -48.22659 35254 ft 433 kts 99°
2026-05-07 08:50 66.86231 -48.07589 35249 ft 434 kts 99°
2026-05-07 08:51 66.85048 -47.92519 35250 ft 435 kts 100°
2026-05-07 08:51 66.83848 -47.77430 35251 ft 435 kts 99°
2026-05-07 08:52 66.82633 -47.62354 35237 ft 436 kts 100°
2026-05-07 08:52 66.81401 -47.47259 35235 ft 436 kts 100°
2026-05-07 08:53 66.80165 -47.32292 35237 ft 436 kts 100°
2026-05-07 08:53 66.78907 -47.17261 35233 ft 436 kts 100°
2026-05-07 08:54 66.77635 -47.02248 35234 ft 436 kts 100°
2026-05-07 08:54 66.76558 -46.89672 35226 ft 436 kts 101°
2026-05-07 08:55 66.75265 -46.74743 35219 ft 437 kts 99°
2026-05-07 08:55 66.73946 -46.59684 35236 ft 439 kts 100°
2026-05-07 08:56 66.72606 -46.44582 35232 ft 441 kts 100°
2026-05-07 08:56 66.71248 -46.29450 35231 ft 442 kts 100°
2026-05-07 08:57 66.69873 -46.14311 35227 ft 442 kts 100°
2026-05-07 08:57 66.68492 -45.99284 35232 ft 442 kts 100°
2026-05-07 08:58 66.67086 -45.84159 35231 ft 442 kts 100°
2026-05-07 08:58 66.65665 -45.69038 35234 ft 442 kts 100°
2026-05-07 08:59 66.64232 -45.53960 35238 ft 443 kts 100°
2026-05-07 08:59 66.62781 -45.38871 35236 ft 443 kts 101°
2026-05-07 09:00 66.61316 -45.23798 35244 ft 442 kts 101°
2026-05-07 09:00 66.59845 -45.08836 35253 ft 443 kts 100°
2026-05-07 09:01 66.58348 -44.93768 35242 ft 444 kts 100°
2026-05-07 09:01 66.56843 -44.78772 35240 ft 445 kts 100°
2026-05-07 09:02 66.55309 -44.63662 35234 ft 446 kts 100°
2026-05-07 09:02 66.53757 -44.48541 35228 ft 446 kts 100°
2026-05-07 09:03 66.52193 -44.33462 35232 ft 447 kts 100°
2026-05-07 09:03 66.50614 -44.18393 35231 ft 447 kts 101°
2026-05-07 09:04 66.49019 -44.03334 35227 ft 447 kts 101°
2026-05-07 09:04 66.47424 -43.88417 35235 ft 447 kts 100°
2026-05-07 09:05 66.45798 -43.73375 35259 ft 447 kts 101°
2026-05-07 09:05 66.44157 -43.58345 35258 ft 447 kts 101°
2026-05-07 09:06 66.42503 -43.43342 35258 ft 447 kts 101°
2026-05-07 09:06 66.40832 -43.28342 35289 ft 448 kts 100°
2026-05-07 09:07 66.39143 -43.13325 35279 ft 449 kts 101°
2026-05-07 09:07 66.37448 -42.98404 35295 ft 450 kts 101°
2026-05-07 09:08 66.35726 -42.83394 35309 ft 451 kts 100°
2026-05-07 09:08 66.33987 -42.68381 35301 ft 451 kts 101°
2026-05-07 09:09 66.32230 -42.53369 35312 ft 451 kts 101°
2026-05-07 09:09 66.30459 -42.38372 35316 ft 452 kts 101°
2026-05-07 09:10 66.28676 -42.23417 35315 ft 451 kts 101°
2026-05-07 09:10 66.26887 -42.08557 35310 ft 452 kts 101°
2026-05-07 09:11 66.25071 -41.93604 35322 ft 452 kts 101°
2026-05-07 09:11 66.23240 -41.78668 35306 ft 452 kts 101°
2026-05-07 09:12 66.21390 -41.63724 35317 ft 454 kts 100°
2026-05-07 09:12 66.19534 -41.48863 35310 ft 455 kts 101°
2026-05-07 09:13 66.17649 -41.33908 35310 ft 455 kts 101°
2026-05-07 09:13 66.15750 -41.18981 35301 ft 455 kts 101°
2026-05-07 09:14 66.13832 -41.04040 35338 ft 456 kts 101°
2026-05-07 09:14 66.11899 -40.89117 35316 ft 455 kts 101°
2026-05-07 09:15 66.09957 -40.74255 35316 ft 455 kts 101°
2026-05-07 09:15 66.08011 -40.59491 35318 ft 455 kts 101°
2026-05-07 09:16 66.06039 -40.44658 35318 ft 455 kts 101°
2026-05-07 09:16 66.04055 -40.29868 35344 ft 455 kts 101°
2026-05-07 09:17 66.02059 -40.15100 35346 ft 455 kts 101°
2026-05-07 09:17 66.00058 -40.00418 35352 ft 456 kts 101°
2026-05-07 09:18 65.97876 -39.85706 35369 ft 459 kts 103°
2026-05-07 09:18 65.95548 -39.71053 35375 ft 460 kts 104°
2026-05-07 09:19 65.93229 -39.56529 35385 ft 460 kts 104°
2026-05-07 09:19 65.90905 -39.41925 35381 ft 460 kts 104°
2026-05-07 09:20 65.88577 -39.27331 35383 ft 460 kts 104°
2026-05-07 09:20 65.86232 -39.12728 35376 ft 461 kts 104°
2026-05-07 09:21 65.83872 -38.98152 35378 ft 461 kts 104°
2026-05-07 09:21 65.81512 -38.83690 35345 ft 461 kts 104°
2026-05-07 09:22 65.79124 -38.69167 35345 ft 461 kts 104°
2026-05-07 09:22 65.76724 -38.54685 35326 ft 461 kts 104°
2026-05-07 09:23 65.74310 -38.40226 35372 ft 461 kts 104°
2026-05-07 09:23 65.71872 -38.25730 35336 ft 463 kts 104°
2026-05-07 09:24 65.69429 -38.11310 35328 ft 464 kts 104°
2026-05-07 09:24 65.66955 -37.96828 35333 ft 465 kts 105°
2026-05-07 09:25 65.64887 -37.84799 35323 ft 465 kts 105°
2026-05-07 09:25 65.61973 -37.67974 35320 ft 465 kts 105°
2026-05-07 09:26 65.59445 -37.53496 35319 ft 466 kts 105°
2026-05-07 09:26 65.56905 -37.39054 35325 ft 467 kts 105°
2026-05-07 09:27 65.54344 -37.24599 35323 ft 468 kts 105°
2026-05-07 09:28 65.50483 -37.03010 35319 ft 468 kts 106°
2026-05-07 09:28 65.47884 -36.88605 35316 ft 469 kts 106°
2026-05-07 09:29 65.45271 -36.74230 35315 ft 469 kts 106°
2026-05-07 09:29 65.42645 -36.59883 35335 ft 469 kts 107°
2026-05-07 09:30 65.40015 -36.45612 35322 ft 470 kts 107°
2026-05-07 09:30 65.37351 -36.31270 35314 ft 471 kts 107°
2026-05-07 09:31 65.34670 -36.16937 35316 ft 471 kts 107°
2026-05-07 09:31 65.31975 -36.02626 35317 ft 471 kts 107°
2026-05-07 09:32 65.29278 -35.88408 35317 ft 471 kts 107°
2026-05-07 09:32 65.26555 -35.74147 35333 ft 472 kts 108°
2026-05-07 09:33 65.23816 -35.59906 35329 ft 473 kts 108°
2026-05-07 09:33 65.21055 -35.45654 35326 ft 473 kts 108°
2026-05-07 09:34 65.18278 -35.31417 35328 ft 474 kts 108°
2026-05-07 09:34 65.15487 -35.17211 35359 ft 474 kts 109°
2026-05-07 09:35 65.12698 -35.03102 35340 ft 475 kts 109°
2026-05-07 09:35 65.09871 -34.88906 35333 ft 476 kts 109°
2026-05-07 09:36 65.07018 -34.74676 35336 ft 477 kts 109°
2026-05-07 09:36 65.04153 -34.60487 35330 ft 477 kts 110°
2026-05-07 09:37 65.01273 -34.46320 35333 ft 477 kts 110°
2026-05-07 09:37 64.98397 -34.32268 35334 ft 477 kts 110°
2026-05-07 09:38 64.95491 -34.18164 35332 ft 478 kts 110°
2026-05-07 09:38 64.92568 -34.04066 35344 ft 478 kts 111°
2026-05-07 09:39 64.89629 -33.89993 35334 ft 479 kts 111°
2026-05-07 09:39 64.86665 -33.75895 35340 ft 479 kts 111°
2026-05-07 09:40 64.83711 -33.61940 35340 ft 479 kts 111°
2026-05-07 09:40 64.80725 -33.47924 35347 ft 480 kts 111°
2026-05-07 09:41 64.77726 -33.33940 35365 ft 480 kts 112°
2026-05-07 09:41 64.74712 -33.19976 35350 ft 480 kts 112°
2026-05-07 09:42 64.71680 -33.06025 35338 ft 480 kts 112°
2026-05-07 09:42 64.68653 -32.92187 35346 ft 480 kts 112°
2026-05-07 09:43 64.66110 -32.80630 35349 ft 480 kts 112°
2026-05-07 09:43 64.63045 -32.66780 35354 ft 480 kts 112°
2026-05-07 09:44 64.59966 -32.52960 35374 ft 480 kts 113°
2026-05-07 09:44 64.56870 -32.39150 35354 ft 481 kts 113°
2026-05-07 09:45 64.53759 -32.25367 35349 ft 481 kts 113°
2026-05-07 09:45 64.50635 -32.11611 35351 ft 481 kts 114°
2026-05-07 09:46 64.47513 -31.97954 35354 ft 482 kts 114°
2026-05-07 09:46 64.44353 -31.84216 35354 ft 482 kts 114°
2026-05-07 09:47 64.41188 -31.70545 35349 ft 481 kts 114°
2026-05-07 09:47 64.38012 -31.56913 35358 ft 481 kts 114°
2026-05-07 09:48 64.34819 -31.43292 35362 ft 481 kts 114°
2026-05-07 09:48 64.31643 -31.29828 35360 ft 481 kts 114°
2026-05-07 09:49 64.28431 -31.16295 35359 ft 481 kts 114°
2026-05-07 09:49 64.25206 -31.02792 35361 ft 481 kts 115°
2026-05-07 09:50 64.21969 -30.89320 35366 ft 482 kts 115°
2026-05-07 09:50 64.18714 -30.75857 35359 ft 482 kts 115°
2026-05-07 09:51 64.15442 -30.62409 35356 ft 482 kts 115°
2026-05-07 09:51 64.12177 -30.49067 35363 ft 483 kts 115°
2026-05-07 09:52 64.08880 -30.35679 35357 ft 482 kts 115°
2026-05-07 09:52 64.05573 -30.22330 35364 ft 482 kts 116°
2026-05-07 09:53 64.02258 -30.09018 35358 ft 482 kts 116°
2026-05-07 09:53 63.98939 -29.95715 35354 ft 482 kts 115°
2026-05-07 09:54 63.95738 -29.82416 35355 ft 481 kts 115°
2026-05-07 09:54 63.92538 -29.69006 35349 ft 481 kts 115°
2026-05-07 09:55 63.89318 -29.55637 35352 ft 481 kts 115°
2026-05-07 09:55 63.86098 -29.42400 35355 ft 482 kts 115°
2026-05-07 09:56 63.82840 -29.29112 35350 ft 482 kts 115°
2026-05-07 09:56 63.79563 -29.15829 35367 ft 483 kts 116°
2026-05-07 09:57 63.76274 -29.02579 35353 ft 483 kts 116°
2026-05-07 09:57 63.72974 -28.89358 35338 ft 483 kts 116°
2026-05-07 09:58 63.69666 -28.76187 35340 ft 483 kts 116°
2026-05-07 09:58 63.66363 -28.63111 35338 ft 483 kts 116°
2026-05-07 09:59 63.63023 -28.49968 35333 ft 483 kts 116°
2026-05-07 09:59 63.59670 -28.36852 35334 ft 483 kts 116°
2026-05-07 10:00 63.56307 -28.23778 35331 ft 483 kts 117°
2026-05-07 10:00 63.52932 -28.10727 35332 ft 483 kts 117°
2026-05-07 10:01 63.49559 -27.97766 35333 ft 484 kts 117°
2026-05-07 10:01 63.46152 -27.84745 35353 ft 484 kts 117°
2026-05-07 10:02 63.42732 -27.71757 35325 ft 484 kts 117°
2026-05-07 10:02 63.39326 -27.58892 35317 ft 484 kts 117°
2026-05-07 10:03 63.35884 -27.45970 35318 ft 483 kts 117°
2026-05-07 10:03 63.32440 -27.33113 35315 ft 483 kts 118°
2026-05-07 10:04 63.29007 -27.20369 35316 ft 483 kts 118°
2026-05-07 10:04 63.25537 -27.07560 35307 ft 483 kts 118°
2026-05-07 10:05 63.22055 -26.94784 35305 ft 483 kts 118°
2026-05-07 10:05 63.18558 -26.82024 35297 ft 483 kts 118°
2026-05-07 10:06 63.15056 -26.69318 35297 ft 484 kts 118°
2026-05-07 10:06 63.11553 -26.56676 35298 ft 484 kts 119°
2026-05-07 10:07 63.08024 -26.44017 35290 ft 484 kts 119°
2026-05-07 10:07 63.04478 -26.31367 35285 ft 484 kts 119°
2026-05-07 10:08 63.00925 -26.18764 35285 ft 483 kts 119°
2026-05-07 10:08 62.97369 -26.06219 35284 ft 483 kts 120°
2026-05-07 10:09 62.93824 -25.93779 35274 ft 483 kts 120°
2026-05-07 10:09 62.90239 -25.81270 35270 ft 483 kts 120°
2026-05-07 10:10 62.86647 -25.68808 35271 ft 483 kts 120°
2026-05-07 10:10 62.83066 -25.56451 35265 ft 483 kts 120°
2026-05-07 10:11 62.79448 -25.44033 35253 ft 484 kts 120°
2026-05-07 10:11 62.75817 -25.31638 35252 ft 484 kts 121°
2026-05-07 10:12 62.72175 -25.19273 35260 ft 484 kts 121°
2026-05-07 10:12 62.68521 -25.06937 35247 ft 484 kts 121°
2026-05-07 10:13 62.64880 -24.94711 35244 ft 484 kts 121°
2026-05-07 10:13 62.61207 -24.82444 35245 ft 484 kts 121°
2026-05-07 10:14 62.57520 -24.70195 35241 ft 484 kts 121°
2026-05-07 10:14 62.53823 -24.57979 35239 ft 484 kts 121°
2026-05-07 10:15 62.50115 -24.45789 35235 ft 484 kts 122°
2026-05-07 10:15 62.46415 -24.33695 35226 ft 484 kts 122°
2026-05-07 10:16 62.42688 -24.21575 35228 ft 484 kts 122°
2026-05-07 10:16 62.38949 -24.09480 35222 ft 484 kts 122°
2026-05-07 10:17 62.35197 -23.97408 35221 ft 484 kts 122°
2026-05-07 10:17 62.31466 -23.85466 35213 ft 484 kts 122°
2026-05-07 10:18 62.27679 -23.73409 35209 ft 483 kts 122°
2026-05-07 10:18 62.23934 -23.61546 35211 ft 483 kts 123°
2026-05-07 10:19 62.20145 -23.49608 35197 ft 483 kts 123°
2026-05-07 10:19 62.16352 -23.37719 35206 ft 483 kts 123°
2026-05-07 10:20 62.12554 -23.25875 35195 ft 483 kts 123°
2026-05-07 10:20 62.08739 -23.14042 35199 ft 483 kts 123°
2026-05-07 10:21 62.04936 -23.02302 35185 ft 484 kts 123°
2026-05-07 10:21 62.01091 -22.90497 35183 ft 484 kts 123°
2026-05-07 10:22 61.97230 -22.78703 35184 ft 485 kts 123°
2026-05-07 10:22 61.93378 -22.66995 35178 ft 486 kts 123°
2026-05-07 10:23 61.89487 -22.55229 35184 ft 486 kts 123°
2026-05-07 10:23 61.85584 -22.43490 35162 ft 486 kts 124°
2026-05-07 10:24 61.81700 -22.31865 35168 ft 486 kts 124°
2026-05-07 10:24 61.77779 -22.20187 35168 ft 487 kts 124°
2026-05-07 10:25 61.73848 -22.08540 35158 ft 487 kts 124°
2026-05-07 10:25 61.69910 -21.96933 35158 ft 486 kts 124°
2026-05-07 10:26 61.65969 -21.85374 35161 ft 485 kts 124°
2026-05-07 10:26 61.62046 -21.73925 35162 ft 484 kts 125°
2026-05-07 10:27 61.58102 -21.62470 35146 ft 483 kts 125°
2026-05-07 10:27 61.54160 -21.51081 35146 ft 482 kts 125°
2026-05-07 10:28 61.50215 -21.39735 35142 ft 481 kts 125°
2026-05-07 10:28 61.46265 -21.28435 35137 ft 480 kts 125°
2026-05-07 10:29 61.42306 -21.17162 35138 ft 480 kts 126°
2026-05-07 10:29 61.38357 -21.05972 35137 ft 482 kts 126°
2026-05-07 10:30 61.32374 -20.89121 35139 ft 483 kts 126°
2026-05-07 10:30 61.28359 -20.77882 35126 ft 483 kts 126°
2026-05-07 10:31 61.24335 -20.66672 35133 ft 483 kts 126°
2026-05-07 10:31 61.20297 -20.55478 35137 ft 485 kts 126°
2026-05-07 10:32 61.16258 -20.44334 35115 ft 487 kts 126°
2026-05-07 10:32 61.12161 -20.33085 35126 ft 489 kts 126°
2026-05-07 10:33 61.08746 -20.23747 35105 ft 490 kts 126°
2026-05-07 10:33 61.04629 -20.12540 35123 ft 488 kts 127°
2026-05-07 10:34 61.00543 -20.01469 35089 ft 482 kts 127°
2026-05-07 10:34 60.96670 -19.90070 35110 ft 488 kts 123°
2026-05-07 10:35 60.92952 -19.78389 35084 ft 494 kts 122°
2026-05-07 10:35 60.89194 -19.66614 35073 ft 490 kts 123°
2026-05-07 10:36 60.85461 -19.55098 35075 ft 478 kts 123°
2026-05-07 10:36 60.81751 -19.43767 35082 ft 482 kts 123°
2026-05-07 10:37 60.77956 -19.32244 35090 ft 493 kts 123°
2026-05-07 10:37 60.74121 -19.20656 35059 ft 492 kts 123°
2026-05-07 10:38 60.70296 -19.09156 35043 ft 484 kts 124°
2026-05-07 10:38 60.66517 -18.97848 35042 ft 483 kts 124°
2026-05-07 10:39 60.62694 -18.86458 35039 ft 492 kts 123°
2026-05-07 10:39 60.58823 -18.74983 35026 ft 492 kts 124°
2026-05-07 10:40 60.54955 -18.63578 35029 ft 485 kts 124°
2026-05-07 10:40 60.51135 -18.52370 35030 ft 482 kts 124°
2026-05-07 10:41 60.47293 -18.41146 35030 ft 487 kts 124°
2026-05-07 10:41 60.43392 -18.29806 35025 ft 492 kts 124°
2026-05-07 10:42 60.39479 -18.18490 35010 ft 488 kts 124°
2026-05-07 10:42 60.35656 -18.07484 34996 ft 477 kts 124°
2026-05-07 10:43 60.31799 -17.96433 34995 ft 484 kts 125°
2026-05-07 10:43 60.27870 -17.85227 34996 ft 494 kts 125°
2026-05-07 10:44 60.23896 -17.73950 34967 ft 488 kts 125°
2026-05-07 10:44 60.19971 -17.62866 34970 ft 484 kts 125°
2026-05-07 10:45 60.16099 -17.51982 34940 ft 481 kts 126°
2026-05-07 10:45 60.12181 -17.41020 34949 ft 487 kts 126°
2026-05-07 10:46 60.08173 -17.29861 34953 ft 495 kts 126°
2026-05-07 10:46 60.04172 -17.18771 34918 ft 488 kts 126°
2026-05-07 10:47 60.00254 -17.07963 34914 ft 480 kts 126°
2026-05-07 10:47 59.96303 -16.97117 34923 ft 486 kts 126°
2026-05-07 10:48 59.92296 -16.86164 34898 ft 490 kts 127°
2026-05-07 10:48 59.88256 -16.75175 34892 ft 490 kts 127°
2026-05-07 10:49 59.84232 -16.64280 34893 ft 483 kts 127°
2026-05-07 10:49 59.80298 -16.53674 34868 ft 475 kts 127°
2026-05-07 10:50 59.76347 -16.43078 34874 ft 483 kts 128°
2026-05-07 10:50 59.72308 -16.32295 34852 ft 489 kts 128°
2026-05-07 10:51 59.68239 -16.21475 34847 ft 487 kts 128°
2026-05-07 10:51 59.64232 -16.10868 34813 ft 481 kts 128°
2026-05-07 10:52 59.60204 -16.00256 34808 ft 478 kts 129°
2026-05-07 10:52 59.56194 -15.89743 34828 ft 483 kts 129°
2026-05-07 10:53 59.52121 -15.79117 34830 ft 492 kts 129°
2026-05-07 10:53 59.48016 -15.68442 34780 ft 485 kts 130°
2026-05-07 10:54 59.43962 -15.57948 34773 ft 478 kts 129°
2026-05-07 10:54 59.39941 -15.47590 34772 ft 476 kts 130°
2026-05-07 10:55 59.35908 -15.37256 34747 ft 484 kts 130°
2026-05-07 10:55 59.31759 -15.26671 34749 ft 489 kts 130°
2026-05-07 10:56 59.27644 -15.16208 34766 ft 485 kts 131°
2026-05-07 10:56 59.25595 -15.11011 35186 ft 480 kts 131°
2026-05-07 10:56 59.23575 -15.05899 35825 ft 470 kts 130°
2026-05-07 10:57 59.21576 -15.00855 36221 ft 468 kts 130°
2026-05-07 10:57 59.19564 -14.95795 36313 ft 473 kts 131°
2026-05-07 10:57 59.17530 -14.90695 36417 ft 477 kts 130°
2026-05-07 10:57 59.15495 -14.85598 36726 ft 476 kts 132°
2026-05-07 10:58 59.13455 -14.80498 36923 ft 478 kts 132°
2026-05-07 10:58 59.11436 -14.75462 37215 ft 476 kts 131°
2026-05-07 10:58 59.09399 -14.70389 37513 ft 475 kts 131°
2026-05-07 10:58 59.07363 -14.65330 37783 ft 475 kts 132°
2026-05-07 10:59 59.03262 -14.55179 38111 ft 477 kts 131°
2026-05-07 10:59 59.01208 -14.50108 38364 ft 476 kts 130°
2026-05-07 10:59 58.99156 -14.45053 38522 ft 477 kts 131°
2026-05-07 11:00 58.95066 -14.35011 38634 ft 476 kts 131°
2026-05-07 11:00 58.90937 -14.24920 38641 ft 480 kts 131°
2026-05-07 11:01 58.86771 -14.14783 38650 ft 483 kts 131°
2026-05-07 11:01 58.82567 -14.04595 38621 ft 484 kts 131°
2026-05-07 11:02 58.78384 -13.94497 38613 ft 483 kts 131°
2026-05-07 11:02 58.74181 -13.84398 38619 ft 482 kts 131°
2026-05-07 11:03 58.69986 -13.74360 38624 ft 480 kts 131°
2026-05-07 11:03 58.65793 -13.64372 38614 ft 479 kts 131°
2026-05-07 11:04 58.61601 -13.54428 38615 ft 478 kts 131°
2026-05-07 11:04 58.57401 -13.44507 38605 ft 478 kts 132°
2026-05-07 11:05 58.53204 -13.34637 38614 ft 478 kts 132°
2026-05-07 11:05 58.49019 -13.24836 38614 ft 479 kts 132°
2026-05-07 11:06 58.44794 -13.14980 38622 ft 479 kts 132°
2026-05-07 11:06 58.40557 -13.05137 38621 ft 479 kts 132°
2026-05-07 11:07 58.36311 -12.95316 38600 ft 479 kts 133°
2026-05-07 11:07 58.32089 -12.85589 38611 ft 479 kts 133°
2026-05-07 11:08 58.27834 -12.75829 38619 ft 479 kts 133°
2026-05-07 11:08 58.23578 -12.66106 38618 ft 478 kts 133°
2026-05-07 11:09 58.19307 -12.56388 38626 ft 478 kts 133°
2026-05-07 11:09 58.15037 -12.46714 38627 ft 478 kts 133°
2026-05-07 11:10 58.10761 -12.37066 38619 ft 478 kts 133°
2026-05-07 11:10 58.06507 -12.27506 38628 ft 478 kts 134°
2026-05-07 11:11 58.02222 -12.17915 38630 ft 478 kts 134°
2026-05-07 11:11 57.97923 -12.08332 38637 ft 478 kts 134°
2026-05-07 11:12 57.93600 -11.98823 38635 ft 477 kts 135°
2026-05-07 11:12 57.89199 -11.89452 38636 ft 476 kts 135°
2026-05-07 11:13 57.84832 -11.80219 38634 ft 475 kts 135°
2026-05-07 11:13 57.80440 -11.70934 38649 ft 474 kts 135°
2026-05-07 11:14 57.76063 -11.61695 38651 ft 474 kts 135°
2026-05-07 11:14 57.71677 -11.52465 38657 ft 473 kts 135°
2026-05-07 11:15 57.67297 -11.43285 38644 ft 473 kts 136°
2026-05-07 11:15 57.62919 -11.34144 38666 ft 472 kts 136°
2026-05-07 11:16 57.58539 -11.25038 38674 ft 471 kts 136°
2026-05-07 11:16 57.54174 -11.15997 38677 ft 471 kts 136°
2026-05-07 11:17 57.49785 -11.06943 38679 ft 471 kts 136°
2026-05-07 11:17 57.45382 -10.97894 38680 ft 471 kts 136°
2026-05-07 11:18 57.41016 -10.88956 38684 ft 470 kts 136°
2026-05-07 11:18 57.36608 -10.79967 38685 ft 470 kts 136°
2026-05-07 11:19 57.32205 -10.71021 38701 ft 469 kts 136°
2026-05-07 11:19 57.27799 -10.62106 38704 ft 469 kts 136°
2026-05-07 11:20 57.23392 -10.53220 38713 ft 469 kts 136°
2026-05-07 11:20 57.18998 -10.44396 38702 ft 468 kts 136°
2026-05-07 11:21 57.15321 -10.37037 38722 ft 468 kts 136°
2026-05-07 11:21 57.10179 -10.26785 38727 ft 468 kts 136°
2026-05-07 11:22 57.06467 -10.19411 38739 ft 468 kts 136°
2026-05-07 11:22 57.02031 -10.10631 38740 ft 469 kts 137°
2026-05-07 11:23 56.97619 -10.01931 38720 ft 468 kts 137°
2026-05-07 11:23 56.93173 -9.93194 38741 ft 468 kts 137°
2026-05-07 11:24 56.88727 -9.84492 38753 ft 468 kts 137°
2026-05-07 11:24 56.84269 -9.75799 38760 ft 468 kts 137°
2026-05-07 11:25 56.79835 -9.67185 38760 ft 468 kts 137°
2026-05-07 11:25 56.75359 -9.58523 38774 ft 468 kts 137°
2026-05-07 11:26 56.70881 -9.49887 38767 ft 468 kts 137°
2026-05-07 11:26 56.66401 -9.41280 38783 ft 469 kts 137°
2026-05-07 11:27 56.61935 -9.32732 38784 ft 469 kts 137°
2026-05-07 11:27 56.57431 -9.24143 38792 ft 469 kts 137°
2026-05-07 11:28 56.52917 -9.15566 38795 ft 470 kts 137°
2026-05-07 11:28 56.48400 -9.07014 38798 ft 469 kts 138°
2026-05-07 11:29 56.43897 -8.98521 38805 ft 469 kts 138°
2026-05-07 11:29 56.39364 -8.90001 38813 ft 469 kts 138°
2026-05-07 11:30 56.34861 -8.81570 38816 ft 469 kts 138°
2026-05-07 11:30 56.30328 -8.73113 38828 ft 469 kts 138°
2026-05-07 11:31 56.25792 -8.64681 38814 ft 468 kts 138°
2026-05-07 11:31 56.21256 -8.56280 38827 ft 465 kts 138°
2026-05-07 11:32 56.14540 -8.43895 38835 ft 461 kts 139°
2026-05-07 11:33 56.10060 -8.35671 38849 ft 460 kts 139°
2026-05-07 11:33 56.05586 -8.27489 38848 ft 459 kts 139°
2026-05-07 11:34 56.01116 -8.19344 38846 ft 458 kts 139°
2026-05-07 11:34 55.96654 -8.11240 38858 ft 457 kts 139°
2026-05-07 11:35 55.92214 -8.03203 38863 ft 456 kts 139°
2026-05-07 11:35 55.87749 -7.95150 38863 ft 456 kts 139°
2026-05-07 11:36 55.83289 -7.87133 38862 ft 456 kts 139°
2026-05-07 11:36 55.78819 -7.79127 38866 ft 455 kts 139°
2026-05-07 11:37 55.74351 -7.71151 38873 ft 455 kts 139°
2026-05-07 11:37 55.69877 -7.63192 38883 ft 455 kts 139°
2026-05-07 11:38 55.65399 -7.55254 38885 ft 455 kts 139°
2026-05-07 11:38 55.60936 -7.47370 38882 ft 455 kts 139°
2026-05-07 11:39 55.56439 -7.39452 38886 ft 456 kts 139°
2026-05-07 11:39 55.51947 -7.31569 38886 ft 455 kts 139°
2026-05-07 11:40 55.47451 -7.23707 38877 ft 455 kts 139°
2026-05-07 11:40 55.42942 -7.15849 38891 ft 455 kts 139°
2026-05-07 11:41 55.38465 -7.08072 38903 ft 455 kts 139°
2026-05-07 11:41 55.33951 -7.00259 38905 ft 455 kts 139°
2026-05-07 11:42 55.29426 -6.92452 38897 ft 455 kts 139°
2026-05-07 11:42 55.24905 -6.84678 38908 ft 455 kts 139°
2026-05-07 11:43 55.20380 -6.76924 38915 ft 455 kts 139°
2026-05-07 11:43 55.15846 -6.69181 38919 ft 455 kts 139°
2026-05-07 11:44 55.11308 -6.61456 38914 ft 455 kts 139°
2026-05-07 11:44 55.06796 -6.53802 38916 ft 455 kts 139°
2026-05-07 11:45 55.02243 -6.46104 38923 ft 455 kts 139°
2026-05-07 11:45 54.97688 -6.38427 38931 ft 456 kts 139°
2026-05-07 11:46 54.93119 -6.30752 38941 ft 456 kts 139°
2026-05-07 11:46 54.88548 -6.23100 38945 ft 456 kts 139°
2026-05-07 11:47 54.83966 -6.15456 38928 ft 456 kts 139°
2026-05-07 11:47 54.79409 -6.07877 38937 ft 456 kts 139°
2026-05-07 11:48 54.74810 -6.00254 38968 ft 456 kts 139°
2026-05-07 11:48 54.70222 -5.92675 38968 ft 456 kts 139°
2026-05-07 11:49 54.65625 -5.85105 38961 ft 456 kts 139°
2026-05-07 11:49 54.61053 -5.77602 38960 ft 456 kts 139°
2026-05-07 11:50 54.56450 -5.70072 38965 ft 456 kts 139°
2026-05-07 11:50 54.51830 -5.62539 38968 ft 456 kts 139°
2026-05-07 11:51 54.47210 -5.55031 38973 ft 456 kts 139°
2026-05-07 11:51 54.42588 -5.47543 38972 ft 457 kts 139°
2026-05-07 11:52 54.37960 -5.40071 38974 ft 457 kts 139°
2026-05-07 11:52 54.33371 -5.32685 38969 ft 456 kts 139°
2026-05-07 11:53 54.28732 -5.25242 38979 ft 456 kts 139°
2026-05-07 11:53 54.24295 -5.18147 38984 ft 456 kts 139°
2026-05-07 11:54 54.19649 -5.10741 38992 ft 457 kts 139°
2026-05-07 11:54 54.15024 -5.03391 38995 ft 457 kts 139°
2026-05-07 11:55 54.10369 -4.96017 38994 ft 456 kts 139°
2026-05-07 11:55 54.05710 -4.88661 38988 ft 456 kts 139°
2026-05-07 11:56 54.01050 -4.81326 39007 ft 456 kts 139°
2026-05-07 11:56 53.96383 -4.74003 38999 ft 456 kts 139°
2026-05-07 11:57 53.91747 -4.66753 39017 ft 456 kts 139°
2026-05-07 11:57 53.87068 -4.59453 39013 ft 456 kts 139°
2026-05-07 11:58 53.82437 -4.52248 39016 ft 456 kts 138°
2026-05-07 11:58 53.78363 -4.43981 39018 ft 459 kts 128°
2026-05-07 11:59 53.74619 -4.35220 39014 ft 459 kts 128°
2026-05-07 11:59 53.70862 -4.26570 39013 ft 459 kts 128°
2026-05-07 12:00 53.67038 -4.17908 39011 ft 460 kts 128°
2026-05-07 12:00 53.63210 -4.09277 39009 ft 459 kts 128°
2026-05-07 12:01 53.59360 -4.00683 39018 ft 459 kts 129°
2026-05-07 12:01 53.55492 -3.92103 39013 ft 460 kts 129°
2026-05-07 12:02 53.51647 -3.83591 39014 ft 460 kts 129°
2026-05-07 12:02 53.47771 -3.75031 39012 ft 460 kts 129°
2026-05-07 12:03 53.43891 -3.66488 39020 ft 459 kts 129°
2026-05-07 12:03 53.39952 -3.58055 39012 ft 459 kts 132°
2026-05-07 12:04 53.35714 -3.50062 39021 ft 458 kts 133°
2026-05-07 12:04 53.31483 -3.42065 39028 ft 459 kts 133°
2026-05-07 12:05 53.27285 -3.34099 39033 ft 459 kts 133°
2026-05-07 12:05 53.23055 -3.26094 39043 ft 459 kts 133°
2026-05-07 12:06 53.18823 -3.18118 39044 ft 459 kts 133°
2026-05-07 12:06 53.14583 -3.10157 39048 ft 458 kts 133°
2026-05-07 12:07 53.10351 -3.02232 39044 ft 458 kts 133°
2026-05-07 12:07 53.06110 -2.94308 39050 ft 458 kts 133°
2026-05-07 12:08 53.01864 -2.86405 39047 ft 458 kts 134°
2026-05-07 12:08 52.98330 -2.79848 39049 ft 458 kts 134°
2026-05-07 12:09 52.94078 -2.71976 39050 ft 457 kts 133°
2026-05-07 12:09 52.89141 -2.62863 39044 ft 457 kts 133°
2026-05-07 12:10 52.84890 -2.55039 39052 ft 457 kts 134°
2026-05-07 12:10 52.81325 -2.48498 39041 ft 457 kts 134°
2026-05-07 12:11 52.77093 -2.40770 39051 ft 457 kts 134°
2026-05-07 12:11 52.72814 -2.32986 39056 ft 457 kts 134°
2026-05-07 12:12 52.68541 -2.25232 39055 ft 457 kts 133°
2026-05-07 12:12 52.64250 -2.17466 39057 ft 457 kts 134°
2026-05-07 12:13 52.59959 -2.09725 39054 ft 458 kts 134°
2026-05-07 12:13 52.55689 -2.02044 38840 ft 461 kts 134°
2026-05-07 12:13 52.53508 -1.98133 38236 ft 460 kts 133°
2026-05-07 12:14 52.51358 -1.94279 37476 ft 457 kts 133°
2026-05-07 12:14 52.49216 -1.90449 36771 ft 453 kts 133°
2026-05-07 12:14 52.47089 -1.86649 35984 ft 451 kts 133°
2026-05-07 12:14 52.44965 -1.82861 35183 ft 450 kts 132°
2026-05-07 12:15 52.42856 -1.79102 34446 ft 445 kts 132°
2026-05-07 12:15 52.40747 -1.75352 33428 ft 446 kts 132°
2026-05-07 12:15 52.38634 -1.71653 32458 ft 444 kts 135°
2026-05-07 12:15 52.36149 -1.68614 31413 ft 447 kts 150°
2026-05-07 12:16 52.33293 -1.66586 30382 ft 450 kts 161°
2026-05-07 12:16 52.30216 -1.65597 29138 ft 454 kts 174°
2026-05-07 12:16 52.27063 -1.65293 27924 ft 454 kts 176°
2026-05-07 12:16 52.23906 -1.65055 26658 ft 455 kts 177°
2026-05-07 12:17 52.20740 -1.64807 25525 ft 454 kts 177°
2026-05-07 12:17 52.17654 -1.64535 24600 ft 447 kts 177°
2026-05-07 12:17 52.14564 -1.64234 23676 ft 442 kts 177°
2026-05-07 12:17 52.11515 -1.63922 22605 ft 437 kts 177°
2026-05-07 12:18 52.08508 -1.63608 21656 ft 429 kts 177°
2026-05-07 12:18 52.05553 -1.63302 20741 ft 422 kts 177°
2026-05-07 12:18 52.02631 -1.63002 19808 ft 416 kts 177°
2026-05-07 12:18 51.99750 -1.62733 18912 ft 411 kts 178°
2026-05-07 12:19 51.96910 -1.62492 17975 ft 407 kts 178°
2026-05-07 12:19 51.94098 -1.62254 17008 ft 401 kts 178°
2026-05-07 12:19 51.91361 -1.62016 16130 ft 396 kts 177°
2026-05-07 12:19 51.88653 -1.61363 15233 ft 391 kts 166°
2026-05-07 12:20 51.86091 -1.59973 14674 ft 383 kts 158°
2026-05-07 12:20 51.83730 -1.57997 14181 ft 383 kts 150°
2026-05-07 12:20 51.81439 -1.55752 13673 ft 387 kts 149°
2026-05-07 12:20 51.79129 -1.53476 13114 ft 387 kts 149°
2026-05-07 12:21 51.76857 -1.51258 12597 ft 384 kts 149°
2026-05-07 12:21 51.74576 -1.49050 12100 ft 380 kts 150°
2026-05-07 12:21 51.72322 -1.46885 11607 ft 370 kts 150°
2026-05-07 12:21 51.70282 -1.44930 11161 ft 358 kts 150°
2026-05-07 12:22 51.68564 -1.43476 10861 ft 346 kts 157°
2026-05-07 12:22 51.66354 -1.42098 10558 ft 332 kts 160°
2026-05-07 12:22 51.64215 -1.40877 10266 ft 320 kts 161°
2026-05-07 12:22 51.62149 -1.39713 9998 ft 309 kts 161°
2026-05-07 12:23 51.60188 -1.38599 9999 ft 290 kts 160°
2026-05-07 12:23 51.58341 -1.37537 9975 ft 273 kts 160°
2026-05-07 12:23 51.56590 -1.36523 9717 ft 266 kts 160°
2026-05-07 12:23 51.54848 -1.35509 9299 ft 266 kts 160°
2026-05-07 12:24 51.53111 -1.34496 8899 ft 265 kts 160°
2026-05-07 12:24 51.51396 -1.33493 8503 ft 265 kts 160°
2026-05-07 12:24 51.49676 -1.32488 8222 ft 261 kts 160°
2026-05-07 12:24 51.47962 -1.31486 7963 ft 262 kts 161°
2026-05-07 12:25 51.46239 -1.30479 7702 ft 263 kts 161°
2026-05-07 12:25 51.44524 -1.29476 7469 ft 262 kts 161°
2026-05-07 12:25 51.42807 -1.28473 7223 ft 262 kts 161°
2026-05-07 12:25 51.41098 -1.27476 6984 ft 261 kts 161°
2026-05-07 12:26 51.39391 -1.26480 6742 ft 261 kts 161°
2026-05-07 12:26 51.37711 -1.25501 6503 ft 260 kts 161°
2026-05-07 12:26 51.35997 -1.24504 6185 ft 262 kts 161°
2026-05-07 12:26 51.34289 -1.23521 5924 ft 260 kts 164°
2026-05-07 12:27 51.32516 -1.23215 5671 ft 256 kts 184°
2026-05-07 12:27 51.30745 -1.23391 5438 ft 254 kts 184°
2026-05-07 12:27 51.28984 -1.23570 5204 ft 253 kts 184°
2026-05-07 12:27 51.27226 -1.23736 4975 ft 253 kts 184°
2026-05-07 12:28 51.25464 -1.23891 4733 ft 253 kts 184°
2026-05-07 12:28 51.23718 -1.24036 4481 ft 249 kts 184°
2026-05-07 12:28 51.22006 -1.24176 4253 ft 244 kts 184°
2026-05-07 12:28 51.20332 -1.24312 4024 ft 238 kts 184°
2026-05-07 12:29 51.18729 -1.24591 3832 ft 230 kts 192°
2026-05-07 12:29 51.17211 -1.25153 3632 ft 218 kts 194°
2026-05-07 12:29 51.15774 -1.25721 3429 ft 206 kts 194°
2026-05-07 12:29 51.14421 -1.26244 3226 ft 195 kts 194°
2026-05-07 12:30 51.13140 -1.26728 3052 ft 184 kts 193°
2026-05-07 12:30 51.11925 -1.27180 2877 ft 175 kts 193°
2026-05-07 12:30 51.10785 -1.27599 2727 ft 160 kts 193°
2026-05-07 12:30 51.09770 -1.27971 2579 ft 147 kts 193°
2026-05-07 12:31 51.08807 -1.28323 2527 ft 142 kts 193°
2026-05-07 12:31 51.07878 -1.28649 2389 ft 130 kts 193°
2026-05-07 12:31 51.07025 -1.29031 2235 ft 125 kts 198°
2026-05-07 12:31 51.06209 -1.29465 2120 ft 125 kts 199°
2026-05-07 12:32 51.05380 -1.29916 2023 ft 128 kts 199°
2026-05-07 12:32 51.04535 -1.30383 1894 ft 128 kts 199°
2026-05-07 12:32 51.03703 -1.30847 1806 ft 129 kts 199°
2026-05-07 12:32 51.02862 -1.31316 1633 ft 126 kts 199°
2026-05-07 12:33 51.01242 -1.32218 1297 ft 125 kts 199°
2026-05-07 12:33 51.00423 -1.32671 1113 ft 124 kts 198°
2026-05-07 12:33 50.99606 -1.33137 956 ft 126 kts 199°
2026-05-07 12:34 50.98785 -1.33591 762 ft 125 kts 197°
2026-05-07 12:34 50.97968 -1.34039 551 ft 126 kts 198°
2026-05-07 12:34 50.97143 -1.34512 382 ft 125 kts 198°
2026-05-07 12:34 50.96340 -1.34952 206 ft 121 kts 197°
2026-05-07 12:35 50.95564 -1.35383 49 ft 113 kts 197°
2026-05-07 12:35 50.94959 -1.35718 38 ft 63 kts 199°
2026-05-07 12:35 50.94713 -1.35855 39 ft 26 kts 198°
2026-05-07 12:35 50.94587 -1.35925 37 ft 10 kts 199°
2026-05-07 12:36 50.94569 -1.36001 38 ft 7 kts 290°
2026-05-07 12:36 50.94586 -1.36076 36 ft 7 kts 290°
2026-05-07 12:36 50.94621 -1.36128 38 ft 8 kts 335°
2026-05-07 12:36 50.94670 -1.36135 38 ft 7 kts 19°
2026-05-07 12:37 50.94718 -1.36108 38 ft 7 kts 19°
2026-05-07 12:37 50.94769 -1.36080 37 ft 9 kts 19°
2026-05-07 12:37 50.94832 -1.36045 36 ft 10 kts 19°
2026-05-07 12:37 50.94891 -1.36044 38 ft 9 kts 310°
2026-05-07 12:38 50.94910 -1.36120 38 ft 7 kts 289°
2026-05-07 12:38 50.94939 -1.36137 38 ft 4 kts 21°
2026-05-07 12:38 50.94961 -1.36123 38 ft 2 kts 19°
2026-05-07 12:38 50.94971 -1.36118 37 ft 0 kts 19°